Zurück zum Katalog

KINEIS-3D

AktivKommunikationSSO
NORAD 61221·PAYLOAD·🇫🇷 France

Gestartet Sep 20, 2024 von Rocket Lab Launch Complex 1

Loading…

Nächste Überflüge (nächste 24 Stunden)

TLE

AktuellSource: Space-Track

Epoche: Sep 14, 2026, 05:33 UTC

1 61221U 24172B   26257.23132071  .00001308  00000-0  21477-3 0  9995
2 61221  98.0410 346.1851 0001195 156.2309 203.8954 14.72308233106456

Verfolge KINEIS-3D in Echtzeit mit AllMySat

Download on the App Store